Location: Chittendens Corners
(41.2320°N, 81.4940°W)
Time: 20:10:44
(UTC+00:00)

Cosmos 1400 Rocket - Pass Details

Date: 29 October 2020
Orbit: 521 x 568 km, 81.2° (Epoch: 03 December)

Event Time Altitude Azimuth Distance (km) Brightness Sun altitude
Rises 23:27:34 0° 198° (SSW) 2,751 6.7 -12.4°
Reaches altitude 10° 23:29:47 10° 202° (SSW) 1,856 5.9 -12.8°
Maximum altitude 23:33:49 57° 282° (WNW) 669 3.6 -13.6°
Drops below altitude 10° 23:37:51 10° 1° (N) 1,851 5.4 -14.3°
Sets 23:40:03 0° 6° (N) 2,744 6.3 -14.7°
